METOP SG-A

导读

METOP SG-A是欧洲空间局(ESA)于2025年8月13日发射的新一代气象卫星,属于极轨气象卫星系列,旨在接续前代METOP卫星任务。它搭载了先进的大气探测、海洋观测与气候监测载荷,可获取高精度温湿度、风速、海表参数等数据,为全球数值天气预报、气候变化研究和极端天气预警提供关键支撑,进一步提升了欧洲乃至全球气象观测与预测能力,目前已在轨运行开展科学观测任务。

Basic Information
目录编号:
65159
目录名称:
METOP SG-A
国际标识:
2025-172A
轨道中心:
EARTH
卫星名称:
METOP SG-A
卫星全名:
METOP SG-A
卫星状态:
在轨 (已飞行398 天)
发射日期:
2025-08-13 UTC
国别 :
(ESA)
星等 :
--
This satellite is enrolled in the Space Conjunction Data Service (SCDS) and the current flight risk assessment level is: No High Risk
Orbit Information
数据来源 国际轨道数据 AOE轨道数据
星历时间 2026-09-15T11:04:13+0800
12小时前
查看轨道信息
2026-09-10T23:00:00+0800
5天前
查看轨道信息
半长轴 7198.412km 7198.439km
偏心率 0.0000864 0.0002163
轨道倾角 98.708° 98.712°
近地点辐角 91.283° 4.338°
升交点赤经 316.188° 311.741°
平近点角 268.844° 5.438°
近地点 819.653km 818.744km
远地点 820.897km 821.86km
周期 101.301分钟 101.302分钟
每日圈数 14.21503 14.21495
Detailed Information
使用方式:
暂无
2D Orbit Map
3D Orbit Map
Orbit Altitude Analysis Chart
Orbit Inclination Analysis Chart
Orbit Comprehensive Analysis Chart
View Comprehensive Chart
Conjunction Data List
Event ID Objects TCA Miss Dist (km) Collision Risk Probability Collision Risk Index (CRI) Action
CDM_260914-030206-487606-515926
2026-09-14T
03:02:36+0000
0.718 km
远距离
6.538051E-5 中风险 0.71
CDM_260910-170606-487606-515928
2026-09-10T
17:06:42+0000
0.727 km
远距离
6.305216E-5 中风险 0.71
CDM_260917-220700-055206-515921
2026-09-17T
22:07:03+0000
1.182 km
极远距离
1.416621E-5 中风险 0.58
CDM_260917-212903-997406-515921
2026-09-17T
21:29:57+0000
2.508 km
极远距离
8.779969E-7 极低风险 0.34
Miss Distance Evolution Trend with All Objects Subscribe to Flight Safety Assessment
Collision Probability Evolution Trend with All Objects Subscribe to Flight Safety Assessment